Orbital Elements at Epoch 2459200.5 (2020-Dec-17.0) TDB
Reference: JPL 32 (heliocentric ecliptic J2000)
Element | Value | Uncertainty (1-sigma) | Units |
e | .1188506312262396 | 4.3834e-08 | |
a | 2.644530762801452 | 1.1698e-08 | au |
q | 2.330226612345291 | 1.1801e-07 | au |
i | 12.56881357258183 | 3.8908e-06 | deg |
node | 120.385101826511 | 2.0463e-05 | deg |
peri | 40.64229449777296 | 2.504e-05 | deg |
M | 227.309949010492 | 1.6194e-05 | deg |
tp | 2459779.471548145299 (2022-Jul-18.97154815) | 7.2483e-05 | TDB |
period | 1570.801697474579 4.30 | 1.0422e-05 2.853e-08 | d yr |
n | .2291823344593922 | 1.5206e-09 | deg/d |
Q | 2.958834913257614 | 1.3088e-08 | au |
|
| | Orbit Determination Parameters
Additional Information
|